Location: Lynch Observatory
(39.9540°N, 75.1861°W)
Time: 17:35:09
(UTC-05:00)

Tiangong 1 - Visible Passes

Search period start: 18 December 2017 00:00
Search period end: 28 December 2017 00:00
Orbit: 274 x 300 km, 42.8° (Epoch: 18 December)

Date Brightness Start Highest point End Pass type
(mag) Time Alt. Az. Time Alt. Az. Time Alt. Az.
19 Dec 3.6 05:39:35 10° S 05:40:56 13° SE 05:42:16 10° ESE visible
20 Dec 2.6 05:43:23 19° S 05:44:24 25° SSE 05:46:34 10° E visible
21 Dec 1.3 05:47:23 40° SSW 05:47:50 47° SSE 05:50:16 10° E visible
22 Dec 0.3 05:51:02 78° SW 05:51:10 87° SSE 05:53:41 10° ENE visible
23 Dec 0.5 05:54:23 59° NNW 05:54:25 59° NNW 05:56:55 10° ENE visible
24 Dec 0.9 05:57:30 44° NNW 05:57:35 44° N 06:00:01 10° ENE visible
25 Dec 1.1 06:00:24 38° NNW 06:00:37 39° N 06:03:00 10° ENE visible
26 Dec 1.1 06:03:08 37° NNW 06:03:31 40° N 06:05:56 10° ENE visible
27 Dec 0.9 06:05:42 38° NW 06:06:18 49° N 06:08:43 10° E visible
